Weather History for LHPA - February, 2013

Change the Weather History Date:

Saturday, February 2, 2013

  Actual Average Record
Temperature  
Mean Temperature 42 °F -  
Max Temperature 48 °F - - ()
Min Temperature 37 °F - - ()
Degree Days  
Heating Degree Days 22    
Moisture  
Dew Point 39 °F    
Average Humidity 86    
Maximum Humidity 100    
Minimum Humidity 71    
Precipitation  
Precipitation 0.00 in - - ()
Sea Level Pressure  
Sea Level Pressure 29.36 in    
Wind  
Wind Speed 13 mph ()    
Max Wind Speed 22 mph    
Max Gust Speed 34 mph    
Visibility 5.0 miles    
Events Rain    
T = Trace of Precipitation, MM = Missing Value Source: Averaged Metar Reports

Daily Weather History Graph

Daily Weather History Graph

Search for Another Location

Airport or City:

Trip Planner

Search our weather history database for the weather conditions in past years. The results will help you decide how hot, cold, wet, or windy it might be!

Date:

Astronomy

Feb. 02, 2013 Rise Set
Actual Time 7:14 AM CET 4:53 PM CET
Civil Twilight 6:41 AM CET 5:26 PM CET
Nautical Twilight 6:05 AM CET 6:02 PM CET
Astronomical Twilight 5:29 AM CET 6:38 PM CET
Moon No Moon Rise 9:43 AM CET (2/2)
Length of Visible Light 10h 44m
Length of Day
9h 38m
Waning Gibbous, 62% of the Moon is Illuminated
Feb 2
Waning Gibbous
Feb 3
Last Quarter
Feb 10
New
Feb 17
First Quarter
Feb 25
Full

Hourly Weather History & Observations

Time (CET) Temp. Windchill Dew Point Humidity Pressure Visibility Wind Dir Wind Speed Gust Speed Precip Events Conditions
12:15 AM 44.6 °F 38.9 °F 35.6 °F 71% 29.42 in - South 11.2 mph - N/A   Clear
12:45 AM 44.6 °F 38.2 °F 37.4 °F 76% 29.39 in - South 13.4 mph - N/A   Clear
1:15 AM 44.6 °F 38.2 °F 37.4 °F 76% 29.39 in - South 13.4 mph - N/A   Clear
1:45 AM 44.6 °F 38.2 °F 37.4 °F 76% 29.36 in - South 13.4 mph - N/A   Clear
2:15 AM 44.6 °F 37.6 °F 37.4 °F 76% 29.36 in - South 15.7 mph - N/A   Clear
2:45 AM 44.6 °F 37.6 °F 39.2 °F 81% 29.33 in - South 15.7 mph - N/A   Clear
3:15 AM 44.6 °F 37.6 °F 39.2 °F 81% 29.33 in - South 15.7 mph - N/A   Clear
3:45 AM 44.6 °F 37.6 °F 39.2 °F 81% 29.30 in 6.2 mi South 15.7 mph - N/A Rain Light Rain
4:15 AM 46.4 °F 39.3 °F 39.2 °F 76% 29.27 in 6.2 mi South 17.9 mph - N/A Rain Light Rain
4:45 AM 44.6 °F 37.0 °F 39.2 °F 81% 29.27 in 6.2 mi South 17.9 mph - N/A Rain Light Rain
5:15 AM 46.4 °F 38.9 °F 39.2 °F 76% 29.27 in 6.2 mi South 20.1 mph - N/A Rain Light Rain
5:45 AM - - - N/A% - 6.2 mi South 15.7 mph - N/A   Mostly Cloudy
6:15 AM 46.4 °F 39.3 °F 39.2 °F 76% 29.24 in 6.2 mi South 17.9 mph - N/A   Mostly Cloudy
6:45 AM 46.4 °F 39.3 °F 39.2 °F 76% 29.21 in 6.2 mi South 17.9 mph - N/A   Mostly Cloudy
7:15 AM 46.4 °F 39.3 °F 41.0 °F 81% 29.21 in - South 17.9 mph - N/A   Clear
7:45 AM 48.2 °F - 41.0 °F 76% 29.21 in - South 17.9 mph - N/A   Clear
8:15 AM 48.2 °F - 41.0 °F 76% 29.21 in - South 15.7 mph - N/A   Clear
8:45 AM - - - N/A% - 6.2 mi SW 15.7 mph - N/A   Overcast
9:15 AM 48.2 °F - 42.8 °F 82% 29.21 in 6.2 mi South 11.2 mph - N/A   Mostly Cloudy
9:45 AM 46.4 °F 41.2 °F 44.6 °F 93% 29.24 in 6.2 mi South 11.2 mph - N/A Rain Light Rain
10:15 AM 46.4 °F 43.0 °F 46.4 °F 100% 29.24 in 6.2 mi SSW 6.7 mph - N/A Rain Light Rain
10:45 AM 44.6 °F 40.8 °F 44.6 °F 100% 29.27 in 3.7 mi SW 6.7 mph - N/A Rain Rain
10:55 AM - - - N/A% - 6.2 mi SW 15.7 mph - N/A   Overcast
11:15 AM 42.8 °F 40.2 °F 42.8 °F 100% 29.27 in 2.5 mi WNW 4.5 mph - N/A Rain Rain
11:45 AM - - - N/A% - 3.7 mi WNW 8.9 mph - N/A   Overcast
12:15 PM 42.8 °F 38.7 °F 42.8 °F 100% 29.30 in 2.5 mi West 6.7 mph - N/A Rain Rain
12:45 PM 41.0 °F 38.1 °F 41.0 °F 100% 29.30 in 2.5 mi West 4.5 mph - N/A Rain Rain
1:15 PM 41.0 °F 38.1 °F 41.0 °F 100% 29.30 in 1.9 mi NNW 4.5 mph - N/A Rain Rain
1:45 PM 41.0 °F - 41.0 °F 100% 29.30 in 1.9 mi NW 2.2 mph - N/A Rain Rain
2:15 PM 42.8 °F 40.2 °F 42.8 °F 100% 29.33 in 1.9 mi WNW 4.5 mph - N/A Rain Rain
2:45 PM - - - N/A% - 3.7 mi WNW 11.2 mph - N/A   Overcast
3:15 PM 41.0 °F 33.6 °F 41.0 °F 100% 29.36 in 2.5 mi NW 13.4 mph - N/A Rain Rain
3:38 PM 41.0 °F 33.6 °F 41.0 °F 100% 29.39 in 3.7 mi North 13.4 mph - N/A Rain Rain
3:45 PM 41.0 °F 33.6 °F 41.0 °F 100% 29.39 in 3.7 mi NNW 13.4 mph - N/A Rain Rain
4:15 PM 41.0 °F 35.4 °F 41.0 °F 100% 29.39 in 3.7 mi NNW 8.9 mph - N/A Rain Rain
4:45 PM 41.0 °F 32.9 °F 39.2 °F 93% 29.42 in 3.7 mi NNW 15.7 mph 31.3 mph N/A Rain Light Rain
5:12 PM 41.0 °F 33.6 °F 39.2 °F 93% 29.42 in 5.0 mi North 13.4 mph - N/A   Overcast
5:15 PM 41.0 °F 33.6 °F 41.0 °F 100% 29.42 in 5.0 mi North 13.4 mph - N/A   Overcast
5:43 PM 41.0 °F 33.6 °F 37.4 °F 87% 29.44 in 6.2 mi NNW 13.4 mph - N/A   Overcast
5:45 PM - - - N/A% - 5.0 mi NNW 17.9 mph 33.6 mph N/A   Overcast
6:15 PM 39.2 °F 31.3 °F 35.6 °F 87% 29.44 in 6.2 mi NNW 13.4 mph 24.6 mph N/A   Overcast
6:45 PM 39.2 °F 30.6 °F 33.8 °F 81% 29.47 in 6.2 mi North 15.7 mph - N/A   Overcast
7:11 PM 41.0 °F 32.9 °F 33.8 °F 76% 29.47 in 6.2 mi North 15.7 mph 26.8 mph N/A   Overcast
7:15 PM 39.2 °F 30.0 °F 33.8 °F 81% 29.47 in 6.2 mi North 17.9 mph 29.1 mph N/A   Overcast
7:45 PM 39.2 °F 30.6 °F 33.8 °F 81% 29.47 in 6.2 mi North 15.7 mph 26.8 mph N/A   Overcast
8:15 PM 39.2 °F 29.4 °F 33.8 °F 81% 29.47 in 6.2 mi NNW 20.1 mph 31.3 mph N/A   Overcast
8:45 PM - - - N/A% - 5.0 mi NNW 17.9 mph 33.6 mph N/A   Overcast
9:15 PM 39.2 °F 29.4 °F 32.0 °F 75% 29.50 in 6.2 mi North 20.1 mph - N/A   Overcast
9:45 PM 39.2 °F 28.9 °F 32.0 °F 75% 29.50 in 6.2 mi North 22.4 mph 33.6 mph N/A   Overcast
10:15 PM 37.4 °F 27.0 °F 32.0 °F 81% 29.50 in 6.2 mi North 20.1 mph - N/A   Overcast
10:45 PM 37.4 °F 27.0 °F 32.0 °F 81% 29.50 in 6.2 mi NNW 20.1 mph 31.3 mph N/A   Overcast
11:15 PM 37.4 °F 26.5 °F 32.0 °F 81% 29.53 in 6.2 mi NNW 22.4 mph - N/A   Overcast
11:45 PM - - - N/A% - 5.0 mi North - - N/A   Mostly Cloudy